EW4321 Weather Reports


time (UTC)temp
C
wind
direction
speed
KPH
gust
KPH
rain 1hr
cm
rain 24hr
cm
rain mn
cm
humidity
%
barometer
mb
20260506162604 15 200 24.1 37.0 0.00 0.00 0.00 92 1012.0
20260506162105 15 199 24.1 38.6 0.00 0.00 0.00 92 1012.1
20260506161605 15 194 25.7 38.6 0.00 0.00 0.00 93 1012.2
20260506161105 15 198 22.5 35.4 0.00 0.00 0.00 93 1012.2
20260506160625 15 203 24.1 35.4 0.00 0.00 0.00 92 1012.3
20260506160105 15 195 20.9 38.6 0.00 0.00 0.00 92 1012.3
20260506155604 15 193 20.9 38.6 0.00 0.00 0.00 92 1012.2
20260506155105 15 192 24.1 33.8 0.00 0.00 0.00 92 1012.3
20260506154604 15 188 20.9 33.8 0.00 0.00 0.00 91 1012.3
20260506154105 15 196 22.5 40.2 0.00 0.00 0.00 91 1012.3
20260506153604 15 183 20.9 40.2 0.00 0.00 0.00 90 1012.4
20260506153105 15 189 20.9 33.8 0.00 0.00 0.00 90 1012.4
20260506152604 15 193 24.1 35.4 0.00 0.00 0.00 90 1012.4
20260506152105 15 194 20.9 35.4 0.00 0.00 0.00 89 1012.5
20260506151604 15 183 19.3 38.6 0.00 0.00 0.00 90 1012.4
20260506151105 15 180 20.9 41.8 0.00 0.00 0.00 90 1012.4
20260506150604 15 189 24.1 41.8 0.00 0.00 0.00 89 1012.5
20260506150127 16 194 27.4 37.0 0.00 0.00 0.00 90 1012.7
20260506145605 15 183 20.9 38.6 0.00 0.00 0.00 90 1012.5
20260506145104 15 190 25.7 40.2 0.00 0.00 0.00 89 1012.6
20260506144626 16 185 24.1 40.2 0.00 0.00 0.00 89 1012.8
20260506144105 16 184 25.7 40.2 0.00 0.00 0.00 88 1012.7
20260506143625 16 186 25.7 35.4 0.00 0.00 0.00 88 1012.9
20260506143105 16 190 24.1 35.4 0.00 0.00 0.00 89 1012.8
20260506142626 16 190 22.5 33.8 0.00 0.00 0.00 90 1012.7
20260506141604 15 192 19.3 35.4 0.00 0.00 0.00 92 1012.7
20260506141105 15 185 22.5 35.4 0.00 0.00 0.00 91 1012.6
20260506140604 15 190 20.9 38.6 0.00 0.00 0.00 92 1012.6
20260506140105 15 186 22.5 38.6 0.00 0.00 0.00 91 1012.6
20260506135626 15 185 22.5 33.8 0.00 0.00 0.00 90 1012.6
20260506135104 15 185 19.3 35.4 0.00 0.00 0.00 91 1012.7
20260506134605 15 185 20.9 38.6 0.00 0.00 0.00 91 1012.8
20260506134104 15 192 24.1 41.8 0.00 0.00 0.00 91 1012.8
20260506133605 15 192 25.7 43.5 0.00 0.00 0.00 91 1012.9
20260506133104 15 193 29.0 45.1 0.00 0.00 0.00 90 1013.0
20260506132604 15 189 29.0 45.1 0.00 0.00 0.00 90 1013.0
20260506132105 16 189 27.4 40.2 0.00 0.00 0.00 90 1013.1
20260506131604 15 187 25.7 38.6 0.00 0.00 0.00 91 1013.2
20260506131105 15 195 25.7 33.8 0.00 0.00 0.00 91 1013.0
20260506130604 15 196 22.5 38.6 0.00 0.00 0.00 92 1013.1
20260506130105 15 190 24.1 38.6 0.00 0.00 0.00 92 1013.0
20260506125605 15 192 25.7 35.4 0.00 0.00 0.00 92 1013.0
20260506125106 15 192 22.5 38.6 0.00 0.00 0.00 92 1013.0
20260506124605 15 196 22.5 38.6 0.00 0.00 0.00 93 1013.1
20260506124105 15 197 22.5 37.0 0.00 0.00 0.00 93 1013.0
20260506123605 15 192 20.9 37.0 0.00 0.00 0.00 94 1013.0
20260506123104 15 192 24.1 37.0 0.00 0.00 0.00 94 1013.0
20260506122604 15 189 22.5 35.4 0.00 0.00 0.00 93 1012.9
20260506122104 15 190 24.1 35.4 0.00 0.00 0.00 94 1013.0
20260506121605 15 193 24.1 35.4 0.00 0.00 0.00 94 1012.9
20260506121104 14 199 25.7 35.4 0.00 0.00 0.00 95 1012.9
20260506120605 14 194 24.1 33.8 0.00 0.00 0.00 95 1012.9
20260506120104 14 187 20.9 33.8 0.00 0.00 0.00 95 1012.9
20260506115605 14 191 24.1 33.8 0.00 0.00 0.00 96 1012.8
20260506115104 14 192 25.7 33.8 0.00 0.00 0.00 96 1012.9
20260506114626 13 194 22.5 37.0 0.00 0.00 0.00 96 1012.9
20260506114105 13 194 25.7 38.6 0.00 0.00 0.00 96 1012.8
20260506113625 13 192 25.7 38.6 0.00 0.00 0.00 96 1012.8
20260506113105 13 192 22.5 38.6 0.00 0.00 0.00 96 1012.9
20260506112604 13 188 22.5 38.6 0.00 0.00 0.00 97 1012.9
20260506112104 13 194 27.4 38.6 0.00 0.00 0.00 97 1012.9
20260506111605 13 194 24.1 35.4 0.00 0.00 0.00 97 1012.9
20260506111104 13 197 24.1 35.4 0.00 0.00 0.00 97 1012.9
20260506110604 13 190 24.1 33.8 0.00 0.00 0.00 97 1012.8
20260506110104 13 193 22.5 35.4 0.00 0.00 0.00 97 1012.9
20260506105604 13 195 20.9 40.2 0.00 0.00 0.00 97 1012.9
20260506105105 13 192 24.1 41.8 0.00 0.00 0.00 97 1012.9
20260506104604 13 192 25.7 41.8 0.00 0.00 0.00 97 1012.8
20260506104105 13 193 25.7 41.8 0.00 0.00 0.00 97 1012.7
20260506103604 13 194 24.1 41.8 0.00 0.00 0.00 97 1012.7
20260506103105 13 194 24.1 40.2 0.00 0.00 0.00 97 1012.7
20260506102626 13 193 25.7 40.2 0.00 0.00 0.00 97 1012.8
20260506102104 13 189 24.1 37.0 0.00 0.00 0.00 97 1012.7
20260506101626 13 189 22.5 37.0 0.00 0.00 0.00 98 1012.8
20260506101104 13 197 20.9 35.4 0.00 0.00 0.00 97 1012.7
20260506100604 13 195 22.5 35.4 0.00 0.00 0.00 98 1012.7
20260506100105 13 193 17.7 33.8 0.00 0.00 0.00 97 1012.6
20260506095625 13 187 20.9 33.8 0.00 0.00 0.00 97 1012.5
20260506095105 13 185 19.3 32.2 0.00 0.00 0.00 97 1012.5
20260506094604 13 194 22.5 33.8 0.00 0.00 0.00 97 1012.5
20260506094104 13 189 22.5 33.8 0.00 0.00 0.00 97 1012.6
20260506093605 13 192 20.9 37.0 0.00 0.00 0.00 97 1012.6
20260506093104 13 193 24.1 37.0 0.00 0.00 0.00 97 1012.8
20260506092604 13 185 19.3 32.2 0.00 0.00 0.00 97 1012.6
20260506091604 13 185 25.7 35.4 0.00 0.00 0.00 97 1012.8
20260506091105 13 186 22.5 38.6 0.00 0.00 0.00 97 1012.8
20260506090604 13 191 24.1 38.6 0.00 0.00 0.00 97 1012.9
20260506090105 13 188 20.9 35.4 0.00 0.00 0.00 97 1013.0
20260506085604 13 186 22.5 37.0 0.00 0.00 0.00 97 1013.1
20260506085104 13 186 24.1 37.0 0.00 0.00 0.00 97 1013.1
20260506084605 13 192 25.7 35.4 0.00 0.00 0.00 97 1013.2
20260506084105 13 183 20.9 35.4 0.00 0.00 0.00 97 1013.1
20260506083625 13 182 22.5 40.2 0.00 0.00 0.00 97 1013.1
20260506083105 13 192 22.5 40.2 0.00 0.00 0.00 97 1013.1
20260506082604 13 191 22.5 35.4 0.00 0.00 0.00 97 1013.0
20260506082105 13 192 20.9 35.4 0.00 0.00 0.00 97 1013.0
20260506081604 13 184 22.5 33.8 0.00 0.00 0.00 97 1013.1
20260506081104 13 190 24.1 33.8 0.00 0.00 0.00 97 1013.1
20260506080626 13 192 20.9 38.6 0.00 0.00 0.00 97 1013.2
20260506080104 13 189 24.1 38.6 0.00 0.00 0.00 96 1013.1
20260506073104 13 189 20.9 35.4 0.00 0.00 0.00 96 1013.2
20260506072605 13 192 20.9 38.6 0.00 0.00 0.00 96 1013.2
20260506072125 13 189 20.9 38.6 0.00 0.00 0.00 96 1013.2
20260506071604 13 191 24.1 35.4 0.00 0.00 0.00 96 1013.2
20260506071104 13 187 20.9 35.4 0.00 0.00 0.00 96 1013.2
20260506070604 13 193 24.1 35.4 0.00 0.00 0.00 96 1013.3
20260506070105 13 194 25.7 35.4 0.00 0.00 0.00 96 1013.3
20260506062104 13 197 25.7 38.6 0.00 0.00 0.00 95 1013.4
20260506061605 13 197 22.5 38.6 0.00 0.00 0.00 94 1013.3
20260506061125 13 192 20.9 38.6 0.00 0.00 0.00 94 1013.3
20260506060604 13 191 20.9 38.6 0.00 0.00 0.00 94 1013.4
20260506060104 13 194 22.5 38.6 0.00 0.00 0.00 94 1013.4
20260506051125 13 194 20.9 37.0 0.00 0.00 0.00 93 1013.8
20260506050604 13 204 24.1 35.4 0.00 0.00 0.00 93 1013.9
20260506050104 13 197 24.1 33.8 0.00 0.00 0.00 93 1013.9
20260506045104 13 203 24.1 38.6 0.00 0.00 0.00 93 1013.8
20260506044604 13 200 25.7 35.4 0.00 0.00 0.00 94 1013.8
20260506044105 13 199 19.3 32.2 0.00 0.00 0.00 94 1013.8
20260506043605 13 199 19.3 32.2 0.00 0.00 0.00 93 1013.9
20260506043104 13 194 20.9 35.4 0.00 0.00 0.00 93 1013.8
20260506042625 13 194 22.5 35.4 0.00 0.00 0.00 93 1013.9
20260506042105 13 196 20.9 33.8 0.00 0.00 0.00 93 1013.8
20260506041605 13 191 24.1 33.8 0.00 0.00 0.00 93 1013.8
20260506040604 13 190 22.5 32.2 0.00 0.00 0.00 93 1013.8
20260506040104 13 189 19.3 33.8 0.00 0.00 0.00 93 1013.8
20260506035605 13 188 22.5 35.4 0.00 0.00 0.00 93 1013.8
20260506035105 13 196 22.5 35.4 0.00 0.00 0.00 93 1013.9
20260506034606 13 192 22.5 35.4 0.00 0.00 0.00 93 1014.0
20260506034104 13 192 19.3 35.4 0.00 0.00 0.00 93 1014.0
20260506033605 13 190 19.3 37.0 0.00 0.00 0.00 93 1014.0
20260506033105 13 187 19.3 38.6 0.00 0.00 0.00 93 1014.1
20260506032604 13 194 20.9 38.6 0.00 0.00 0.00 92 1014.1
20260506032126 13 194 22.5 37.0 0.00 0.00 0.00 92 1014.0
20260506031604 13 193 25.7 35.4 0.00 0.00 0.00 92 1014.0
20260506031104 14 189 17.7 35.4 0.00 0.00 0.00 92 1014.0
20260506030626 14 190 20.9 35.4 0.00 0.00 0.00 92 1014.1
20260506030104 14 196 24.1 35.4 0.00 0.00 0.00 92 1014.0
20260506025606 14 195 22.5 43.5 0.00 0.00 0.00 92 1014.0
20260506025106 14 196 19.3 43.5 0.00 0.00 0.00 92 1014.0
20260506024605 14 195 25.7 38.6 0.00 0.00 0.00 92 1014.0
20260506024126 14 191 22.5 32.2 0.00 0.00 0.00 91 1014.0
20260506023628 14 197 19.3 33.8 0.00 0.00 0.00 91 1014.1
20260506023107 14 198 24.1 33.8 0.00 0.00 0.00 91 1014.1
20260506022604 14 198 20.9 33.8 0.00 0.00 0.00 91 1014.1
20260506022104 14 197 20.9 32.2 0.00 0.00 0.00 91 1014.1
20260506021604 14 199 17.7 30.6 0.00 0.00 0.00 91 1014.2
20260506021104 14 196 20.9 30.6 0.00 0.00 0.00 91 1014.2
20260506020604 14 195 16.1 32.2 0.00 0.00 0.00 91 1014.1
20260506020104 14 192 22.5 32.2 0.00 0.00 0.00 91 1014.1
20260506015604 14 189 17.7 32.2 0.00 0.00 0.00 91 1014.1
20260506015104 14 196 20.9 35.4 0.00 0.00 0.00 91 1014.1
20260506014625 14 195 20.9 35.4 0.00 0.00 0.00 91 1014.1
20260506014104 14 191 22.5 33.8 0.00 0.00 0.00 91 1014.0
20260506013605 14 187 19.3 33.8 0.00 0.00 0.00 91 1014.0
20260506013104 14 195 22.5 30.6 0.00 0.00 0.00 91 1014.0
20260506012604 14 196 16.1 32.2 0.00 0.00 0.00 91 1014.0
20260506012104 14 191 22.5 33.8 0.00 0.00 0.00 91 1013.9
20260506011605 14 192 22.5 35.4 0.00 0.00 0.00 91 1013.7
20260506011104 14 188 25.7 35.4 0.00 0.00 0.00 91 1013.6
20260506010604 14 193 20.9 37.0 0.00 0.00 0.00 91 1013.6
20260506010104 14 193 22.5 37.0 0.00 0.00 0.00 91 1013.5
20260506005604 14 190 20.9 37.0 0.00 0.00 0.00 91 1013.4
20260506005104 14 192 24.1 37.0 0.00 0.00 0.00 91 1013.4
20260506004625 14 195 20.9 35.4 0.00 0.00 0.00 91 1013.4
20260506004105 14 195 22.5 35.4 0.00 0.00 0.00 91 1013.5
20260506003605 14 191 22.5 32.2 0.00 0.00 0.00 91 1013.4
20260506003104 14 195 22.5 33.8 0.00 0.00 0.00 90 1013.5
20260506002604 14 199 20.9 35.4 0.00 0.00 0.00 90 1013.5
20260506002104 14 195 22.5 38.6 0.00 0.00 0.00 90 1013.4
20260506001604 14 191 25.7 38.6 0.00 0.00 0.00 90 1013.4
20260506001105 14 192 22.5 37.0 0.00 0.00 0.00 89 1013.3
20260506000604 15 200 20.9 43.5 0.00 0.00 0.00 89 1013.2
20260506000105 15 197 24.1 43.5 0.00 0.00 0.00 89 1013.2
20260505235604 15 190 25.7 40.2 0.00 0.00 0.00 88 1013.1
20260505235104 15 197 22.5 40.2 0.00 0.00 0.00 88 1013.1
20260505234604 15 195 29.0 43.5 0.00 0.00 0.00 87 1013.0
20260505234104 15 197 22.5 43.5 0.00 0.00 0.00 87 1013.0
20260505233604 15 196 25.7 40.2 0.00 0.00 0.00 87 1013.0
20260505233103 15 194 27.4 41.8 0.00 0.00 0.00 86 1013.0
20260505232625 15 190 27.4 41.8 0.00 0.00 0.00 86 1013.0
20260505232125 16 195 27.4 48.3 0.00 0.00 0.00 85 1012.7
20260505231604 16 175 27.4 48.3 0.00 0.00 0.00 85 1012.7
20260505231104 16 197 24.1 46.7 0.00 0.00 0.00 85 1012.8
20260505230604 16 177 22.5 46.7 0.00 0.00 0.00 85 1012.8
20260505230104 16 197 25.7 38.6 0.00 0.00 0.00 85 1012.8
20260505225626 16 198 19.3 38.6 0.00 0.00 0.00 84 1012.7
20260505225126 16 192 27.4 40.2 0.00 0.00 0.00 83 1012.6
20260505224625 16 187 29.0 46.7 0.00 0.00 0.00 83 1012.4
20260505224104 16 194 24.1 46.7 0.00 0.00 0.00 83 1012.5
20260505223604 16 197 22.5 38.6 0.00 0.00 0.00 83 1012.4
20260505223104 16 198 20.9 41.8 0.00 0.00 0.00 83 1012.6
20260505222604 16 194 20.9 41.8 0.00 0.00 0.00 83 1012.7
20260505222104 16 201 25.7 45.1 0.00 0.00 0.00 83 1012.6
20260505221604 16 199 24.1 45.1 0.00 0.00 0.00 83 1012.6
20260505221104 16 198 25.7 41.8 0.00 0.00 0.00 83 1012.5
20260505220604 16 202 22.5 41.8 0.00 0.00 0.00 83 1012.4
20260505220104 17 200 24.1 41.8 0.00 0.00 0.00 83 1012.4
20260505215647 17 202 22.5 43.5 0.00 0.00 0.00 83 1012.5
20260505215104 16 200 22.5 43.5 0.00 0.00 0.00 83 1012.4
20260505214604 17 204 27.4 45.1 0.00 0.00 0.00 82 1012.2
20260505214104 16 198 25.7 46.7 0.00 0.00 0.00 82 1012.3
20260505213627 17 196 24.1 48.3 0.00 0.00 0.00 82 1012.2
20260505213104 17 197 30.6 48.3 0.00 0.00 0.00 82 1012.1
20260505212604 17 189 27.4 45.1 0.00 0.00 0.00 82 1012.1
20260505212104 17 190 29.0 45.1 0.00 0.00 0.00 81 1012.2
20260505211604 17 193 22.5 43.5 0.00 0.00 0.00 82 1012.2
20260505211105 17 192 25.7 43.5 0.00 0.00 0.00 82 1012.1
20260505210604 17 194 27.4 45.1 0.00 0.00 0.00 82 1012.1
20260505210104 17 191 29.0 45.1 0.00 0.00 0.00 82 1012.0
20260505205604 17 189 25.7 43.5 0.00 0.00 0.00 82 1012.0
20260505205104 17 188 27.4 40.2 0.00 0.00 0.00 81 1012.0
20260505204604 17 191 25.7 40.2 0.00 0.00 0.00 81 1012.0
20260505204104 17 193 29.0 40.2 0.00 0.00 0.00 81 1011.9
20260505203626 17 191 27.4 40.2 0.00 0.00 0.00 81 1012.0
20260505203104 17 190 27.4 40.2 0.00 0.00 0.00 81 1012.1
20260505202604 17 191 24.1 41.8 0.00 0.00 0.00 81 1012.1
20260505202104 17 185 27.4 41.8 0.00 0.00 0.00 81 1012.2
20260505201604 17 196 27.4 40.2 0.00 0.00 0.00 81 1012.3
20260505201125 17 193 27.4 41.8 0.00 0.00 0.00 81 1012.2
20260505200605 17 195 27.4 41.8 0.00 0.00 0.00 81 1012.3
20260505200104 17 196 27.4 41.8 0.00 0.00 0.00 82 1012.4
20260505195604 17 189 24.1 41.8 0.00 0.00 0.00 82 1012.4
20260505195104 17 188 24.1 40.2 0.00 0.00 0.00 82 1012.4
20260505194604 17 190 27.4 40.2 0.00 0.00 0.00 82 1012.5
20260505194104 17 193 24.1 38.6 0.00 0.00 0.00 82 1012.5
20260505193604 17 187 29.0 46.7 0.00 0.00 0.00 81 1012.5
20260505193104 17 192 25.7 46.7 0.00 0.00 0.00 82 1012.6
20260505192604 17 189 24.1 40.2 0.00 0.00 0.00 81 1012.7
20260505192104 17 181 22.5 33.8 0.00 0.00 0.00 81 1012.7
20260505191604 17 189 22.5 33.8 0.00 0.00 0.00 82 1012.9
20260505191126 17 189 22.5 35.4 0.00 0.00 0.00 83 1012.8
20260505190604 17 178 25.7 40.2 0.00 0.00 0.00 83 1012.8
20260505190125 17 178 24.1 40.2 0.00 0.00 0.00 83 1012.9
20260505185604 17 179 24.1 38.6 0.00 0.00 0.00 82 1012.9
20260505185104 17 184 22.5 38.6 0.00 0.00 0.00 83 1012.9
20260505184605 17 176 20.9 38.6 0.00 0.00 0.00 83 1012.9
20260505184104 17 181 27.4 37.0 0.00 0.00 0.00 82 1013.0
20260505183604 17 180 22.5 40.2 0.00 0.00 0.00 83 1013.0
20260505183105 16 189 24.1 40.2 0.00 0.00 0.00 84 1013.1
20260505182604 16 187 22.5 38.6 0.00 0.00 0.00 83 1013.1
20260505182126 16 190 22.5 40.2 0.00 0.00 0.00 83 1013.1
20260505181604 16 195 27.4 45.1 0.00 0.00 0.00 83 1013.1
20260505181104 16 186 22.5 45.1 0.00 0.00 0.00 84 1013.2
20260505180605 16 183 22.5 41.8 0.00 0.00 0.00 83 1013.3
20260505180104 17 191 25.7 41.8 0.00 0.00 0.00 83 1013.4
20260505175605 17 191 27.4 40.2 0.00 0.00 0.00 83 1013.4
20260505175104 17 188 24.1 33.8 0.00 0.00 0.00 83 1013.4
20260505174646 17 183 22.5 33.8 0.00 0.00 0.00 83 1013.5
20260505174106 17 181 24.1 35.4 0.00 0.00 0.00 83 1013.4
20260505173603 16 184 24.1 35.4 0.00 0.00 0.00 84 1013.4
20260505173104 16 187 22.5 37.0 0.00 0.00 0.00 84 1013.4
20260505172604 16 192 25.7 37.0 0.00 0.00 0.00 83 1013.4
20260505172104 16 181 20.9 37.0 0.00 0.00 0.00 84 1013.4
20260505171604 16 188 22.5 37.0 0.00 0.00 0.00 85 1013.4
20260505171104 16 181 25.7 38.6 0.00 0.00 0.00 84 1013.3
20260505170604 16 177 25.7 38.6 0.00 0.00 0.00 84 1013.4
20260505170104 16 184 22.5 37.0 0.00 0.00 0.00 85 1013.4
20260505165625 16 180 22.5 32.2 0.00 0.00 0.00 85 1013.2
20260505165104 16 186 24.1 35.4 0.00 0.00 0.00 85 1013.1
20260505164606 16 186 24.1 35.4 0.00 0.00 0.00 86 1013.2
20260505164104 16 180 24.1 35.4 0.00 0.00 0.00 85 1013.3
20260505163604 16 179 24.1 37.0 0.00 0.00 0.00 85 1013.3
20260505163104 16 182 17.7 37.0 0.00 0.00 0.00 85 1013.5